Home > Weather > Brussels > Past weeks

Flag for Belgium Weather for the Past 2 Weeks in Brussels, Belgium

Now
37 °F

Passing clouds.


Feels Like: 31 °F
Forecast: 34 / 42 °F
Wind: 8 mph from South

Location: Brussels National Airport

Current Time: Feb 12, 2016 at 8:49:53 AM

Latest Report: Feb 12, 2016 at 8:20 AM


Visibility: N/A

Pressure: 29.53 "Hg

Humidity: 93%

Dew point: 36 °F

Location of BrusselsLocation

Historic Weather in Brussels — Graph

°F

Brussels Temperature Yesterday

Maximum temperature yesterday: 43 °F (at 11:50 AM)
Minimum temperature yesterday: 36 °F (at 4:50 AM)
Average temperature yesterday: 39 °F

High & Low Weather Summary for the Past Weeks

 TemperatureHumidityPressure
High54 °F (Jan 31, 8:50 PM)100% (Jan 30, 3:20 AM)30.33 "Hg (Jan 30, 3:20 AM)
Low36 °F (Feb 9, 4:20 PM)53% (Jan 28, 1:50 PM)28.88 "Hg (Feb 9, 1:20 PM)
Average44 °F84%29.83 "Hg
* Reported Jan 28 7:20 AM — Feb 12 7:20 AM, Brussels, Weather by CustomWeather, © 2016

Note: Actual official high and low records may vary slightly from our data, if they occured in-between our weather recording intervals... More about our weather records

Advertising

Brussels Weather History for the Previous 24 Hours

 ConditionsComfort  
Time TempWeatherWind HumidityBarometerVisibility
7:20 AM
Fri, Feb 12
37 °FPassing clouds.7 mph93%29.53 "Hg6 mi
6:50 AM36 °FPartly cloudy.8 mph100%29.56 "Hg6 mi
6:20 AM36 °FPassing clouds.10 mph100%29.56 "Hg6 mi
5:50 AM36 °FPartly cloudy.10 mph93%29.56 "HgN/A
5:20 AM36 °FPassing clouds.8 mph93%29.59 "HgN/A
4:50 AM36 °FPassing clouds.8 mph93%29.59 "Hg5 mi
4:20 AM36 °FClear.7 mph93%29.59 "Hg5 mi
3:50 AM36 °FPassing clouds.7 mph100%29.59 "HgN/A
3:20 AM36 °FPassing clouds.6 mph100%29.59 "HgN/A
2:50 AM36 °FPassing clouds.7 mph100%29.62 "HgN/A
2:20 AM37 °FPassing clouds.8 mph93%29.62 "HgN/A
1:50 AM37 °FPassing clouds.6 mph93%29.62 "HgN/A
1:20 AM37 °FPassing clouds.7 mph93%29.62 "HgN/A
12:50 AM37 °FPassing clouds.8 mph93%29.62 "HgN/A
12:20 AM36 °FPassing clouds.7 mph100%29.65 "HgN/A
11:50 PM
Thu, Feb 11
36 °FPartly cloudy.5 mph100%29.65 "HgN/A
10:20 PM36 °FPassing clouds.6 mph100%29.65 "HgN/A
9:50 PM37 °FPassing clouds.6 mph93%29.65 "HgN/A
9:20 PM37 °FPartly cloudy.5 mph93%29.68 "HgN/A
8:50 PM37 °FSprinkles. Partly cloudy.6 mph93%29.68 "HgN/A
8:20 PM39 °FSprinkles. Partly cloudy.9 mph93%29.68 "HgN/A
7:50 PM39 °FSprinkles. Passing clouds.5 mph93%29.68 "HgN/A
7:20 PM41 °FSprinkles. Partly cloudy.6 mph87%29.68 "HgN/A
6:50 PM41 °FPassing clouds.6 mph87%29.68 "HgN/A
6:20 PM41 °FPassing clouds.5 mph87%29.68 "HgN/A
5:50 PM41 °FPassing clouds.3 mph87%29.68 "HgN/A
5:20 PM41 °FScattered clouds.6 mph87%29.68 "HgN/A
4:50 PM41 °FScattered clouds.9 mph87%29.68 "HgN/A
4:20 PM43 °FScattered clouds.6 mph81%29.68 "HgN/A
3:50 PM43 °FScattered clouds.7 mph81%29.68 "HgN/A
3:20 PM43 °FScattered clouds.7 mph81%29.68 "HgN/A
2:50 PM43 °FScattered clouds.7 mph87%29.68 "HgN/A
2:20 PM43 °FScattered clouds.7 mph81%29.68 "HgN/A
1:50 PM43 °FPassing clouds.8 mph81%29.68 "HgN/A
1:20 PM41 °FPassing clouds.7 mph87%29.68 "HgN/A
12:50 PM43 °FScattered clouds.12 mph81%29.68 "HgN/A
12:20 PM43 °FPassing clouds.10 mph87%29.68 "HgN/A
11:50 AM43 °FPassing clouds.10 mph81%29.68 "HgN/A
11:20 AM41 °FPassing clouds.8 mph87%29.68 "HgN/A
10:50 AM41 °FPassing clouds.10 mph87%29.68 "HgN/A
10:20 AM39 °FPassing clouds.12 mph93%29.68 "Hg4 mi
9:50 AM37 °FPassing clouds.12 mph93%29.68 "Hg4 mi
9:20 AM37 °FClear.8 mph93%29.68 "Hg4 mi
8:50 AM36 °FPassing clouds.7 mph100%29.68 "Hg4 mi
8:20 AM36 °FPassing clouds.9 mph100%29.68 "Hg4 mi
Weather by CustomWeather, © 2016

See weather overviewHow to use our weather pages